Regional Weather Roundup
Issued by NWS Boston, MA

Home | Current Version | Previous Version | Text Only | Print | Product List | Glossary On
Versions: 1 2 3 4 5 6 7 8 9 10 11 12 13 14 15 16 17 18 19 20 21 22 23 24 25 26 27 28 29 30 31 32 33 34 35 36 37 38 39 40 41 42 43 44 45 46 47 48 49 50
000
ASUS41 KBOX 292310
RWRBOX

REGIONAL WEATHER ROUNDUP
NATIONAL WEATHER SERVICE TAUNTON MA
700 PM EDT TUE JUL 29 2014

NOTE:  "FAIR" INDICATES FEW OR NO CLOUDS BELOW 12,000 FEET WITH NO
SIGNIFICANT WEATHER AND/OR OBSTRUCTIONS TO VISIBILITY.  THE FOLLOWING
OBSERVATION LOCATIONS DO NOT REPORT PRESENT WEATHER...PROVINCETOWN...
SMITHFIELD...BLOCK ISLAND...KEENE...AND OXFORD.

MAZALL-300000-
EASTERN MASSACHUSETTS

CITY           SKY/WX    TMP DP  RH WIND       PRES   REMARKS
BOSTON         PTSUNNY   70  59  68 E9        29.89R
BEVERLY        CLOUDY    71  58  63 S9        29.88R
LAWRENCE       CLOUDY    73  55  53 NW3       29.90R
BEDFORD        CLOUDY    71  58  63 W3        29.88R
BLUE HILL        N/A     70  56  61 W12       29.90R
NORWOOD        CLOUDY    73  56  54 W10       29.89R
MARSHFIELD     PTSUNNY   70  63  78 CALM      29.90R
PLYMOUTH       MOSUNNY   73  58  59 S6        29.90R
TAUNTON        CLOUDY    75  57  53 W6        29.89R
NEW BEDFORD    SUNNY     73  58  59 SW8       29.89R
$$

MAZALL-300000-
CAPE COD AND THE ISLANDS

CITY           SKY/WX    TMP DP  RH WIND       PRES   REMARKS
FALMOUTH       SUNNY     72  61  68 SW13      29.91R
HYANNIS        CLEAR     72  62  71 S10       29.90R
CHATHAM        CLEAR     69  61  75 SW8       29.92R
PROVINCETOWN   PTSUNNY   72  63  73 CALM      29.90R
NANTUCKET      CLEAR     67  62  84 S9        29.93R
MARTHAS VNYRD  SUNNY     69  63  81 SW8       29.91R
$$

MAZALL-300000-
CENTRAL AND WESTERN MASSACHUSETTS

CITY           SKY/WX    TMP DP  RH WIND       PRES   REMARKS
WORCESTER      MOSUNNY   68  54  60 W5        29.93R
FITCHBURG      CLOUDY    73  53  49 W6        29.91R
ORANGE         SUNNY     69  54  58 W5        29.91R
SPRINGFIELD    SUNNY     72  51  46 W8        29.90R
WESTFIELD      MOSUNNY   72  52  49 W6        29.91R
NORTH ADAMS    PTSUNNY   67  58  72 CALM      29.93R
PITTSFIELD     MOSUNNY   66  51  58 W6        29.94R
$$

RIZALL-300000-
RHODE ISLAND

CITY           SKY/WX    TMP DP  RH WIND       PRES   REMARKS
PROVIDENCE     MOSUNNY   74  54  49 W9        29.91R
NEWPORT        PTSUNNY   74  57  55 CALM      29.91R
BLOCK ISLAND   SUNNY     72  61  68 SW12      29.93R
SMITHFIELD     CLOUDY    70  54  56 SW3       29.91R
WESTERLY       SUNNY     73  58  59 SW8       29.92R
$$

CTZALL-300000-
CONNECTICUT

CITY           SKY/WX    TMP DP  RH WIND       PRES   REMARKS
BRADLEY INTL   PTSUNNY   73  52  47 NW7       29.90R
HARTFORD       PTSUNNY   74  48  39 NW8       29.91R
BRIDGEPORT     MOSUNNY   74  52  46 W6        29.92R
DANBURY        CLOUDY    70  52  52 CALM      29.94R
GROTON         SUNNY     71  57  61 W6        29.91R
NEW HAVEN      PTSUNNY   75  55  49 SW3       29.92R
CHESTER        PTSUNNY   70  57  64 SW5       29.94R
MERIDEN        CLOUDY    72  52  49 W3        29.92R
WILLIMANTIC    PTSUNNY   72  53  51 NW5       29.92R
OXFORD         PTSUNNY   68  55  64 CALM      29.96R
$$

MEZ002-015-021-024-NHZ003-005-008-011-012-014-VTZ005-008-300000-
NORTHERN NEW ENGLAND

CITY           SKY/WX    TMP DP  RH WIND       PRES   REMARKS
PORTLAND ME    CLOUDY    68  60  75 S6        29.88R
BANGOR ME      MOCLDY    71  56  58 N10       29.88R
CONCORD NH     SUNNY     72  51  47 NW6       29.89R
MANCHESTER NH  PTSUNNY   74  51  44 W6        29.88R
NASHUA NH      MOSUNNY   75  54  48 CALM      29.90R
PORTSMOUTH NH  PTSUNNY   69  60  71 SE6       29.88R
JAFFREY NH     SUNNY     69  51  52 VRB3      29.93R
KEENE NH       SUNNY     70  48  46 CALM      29.91R
BURLINGTON VT  PTSUNNY   68  52  56 NE7       29.92R
MT. WASHINGTON FOG       43  43 100 W8          N/A  VSB 1/16
$$

NYZ052-076-300000-
EASTERN NEW YORK

CITY           SKY/WX    TMP DP  RH WIND       PRES   REMARKS
ALBANY         PTSUNNY   71  52  50 W8        29.92R
NEW YORK CITY  PTSUNNY   74  49  41 NW10      29.92R
$$

ANZALL-300000-
MARINE OBSERVATIONS

STATION/POSITION TIME  TEMP    WIND        PRES    VSBY  WAVE
                       AIR SEA DIR/SP/G                  HT/PER
                 (UTC) (F)     (DEG/KT/KT) (MB)    (MI)  (FT/S)
BOSTON BUOY      NOT AVBL
BUZZARDS BAY     NOT AVBL
NANTUCKET SOUND  NOT AVBL
MASS BAY-STELLWA NOT AVBL
ISLE OF SHOALS   NOT AVBL
S OF BLOCK IS    NOT AVBL
$$

......................KEY.........................
  SKY/WX - SKY CONDITION/PRESENT WEATHER
  TMP    - TEMPERATURE IN FAHRENHEIT
  DWPT   - DEWPOINT IN FAHRENHEIT
  RH     - RELATIVE HUMIDITY IN PERCENT
  WIND   - DIRECTION AND SPEED IN MPH
  PRES   - MEAN SEA LEVEL PRESSURE IN INCHES OF HG
  WCI    - WIND CHILL INDEX
  VSB    - VISIBILITY IN MILES
  HX     - HEAT INDEX
  TC     - TEMPERATURE IN CELSIUS
  VRB    - VARIABLE WIND DIRECTION
  N/A    - NOT AVAILABLE


USA.gov is the U.S. government's official web portal to all federal, state and local government web resources and services.